Flag for Canada Weather past 2 weeks in Kings County, Nova Scotia, Canada

Now
38 °F

Chilly.


Feels Like: 35 °F
Forecast: 33 / 41 °F
Wind: 3 mph from Northwest

Location: McNabs Island - AUT

Current Time: Mar 27, 2015 at 5:29:45 AM

Latest Report: Mar 27, 2015 at 5:00 AM


Visibility: N/A

Pressure: 29.60 "Hg

Humidity: 99%

Dew point: 38 °F

Location of Kings CountyLocation

Historic Weather in Kings County — Graph

°F

Kings County temperature yesterday

Maximum temperature yesterday: 42 °F (at 5:00 PM)
Minimum temperature yesterday: 29 °F (at 1:00 AM)
Average temperature yesterday: 36 °F

Past Weeks' High & Low Weather Summary

 TemperatureHumidityPressure
High45 °F (Mar 25, 5:00 PM)100% (Mar 15, 2:00 AM)30.37 "Hg (Mar 15, 2:00 AM)
Low13 °F (Mar 13, 8:00 AM)27% (Mar 25, 2:00 PM)29.00 "Hg (Mar 18, 6:00 AM)
Average27 °F75%29.84 "Hg
* Reported Mar 12 4:00 AM — Mar 27 4:00 AM, Kings County, Weather by CustomWeather, © 2015

Note: Actual official high and low records may vary slightly from our data, if they occured in-between our weather recording intervals... More about our weather records

Advertising

Kings County weather history for previous 24 hours

 ConditionsComfort  
Time TempWeatherWind HumidityBarometerVisibility
4:00 AM
Fri, Mar 27
38 °FChilly.3 mph100%29.61 "HgN/A
3:00 AM37 °FChilly.3 mph99%29.62 "HgN/A
2:00 AM37 °FChilly.1 mph98%29.62 "HgN/A
1:00 AM39 °FChilly.2 mph99%29.63 "HgN/A
12:00 AM38 °FChilly.No wind99%29.67 "HgN/A
11:00 PM
Thu, Mar 26
37 °FChilly.2 mph99%29.67 "HgN/A
10:00 PM38 °FChilly.3 mph99%29.70 "HgN/A
9:00 PM37 °FChilly.3 mph99%29.70 "HgN/A
8:00 PM37 °FChilly.2 mph92%29.72 "HgN/A
7:00 PM38 °FChilly.5 mph98%29.73 "HgN/A
6:00 PM40 °FChilly.10 mph97%29.77 "HgN/A
5:00 PM42 °FQuite cool.5 mph95%29.78 "HgN/A
4:00 PM41 °FQuite cool.10 mph92%29.80 "HgN/A
3:00 PM41 °FQuite cool.15 mph93%29.83 "HgN/A
2:00 PM40 °FQuite cool.21 mph95%29.88 "HgN/A
1:00 PM38 °FChilly.20 mph96%29.92 "HgN/A
12:00 PM38 °FChilly.18 mph95%29.95 "HgN/A
11:00 AM37 °FChilly.17 mph89%29.99 "HgN/A
10:00 AM35 °FChilly.16 mph87%30.03 "HgN/A
9:00 AM35 °FChilly.14 mph84%30.05 "HgN/A
8:00 AM34 °FChilly.16 mph89%30.07 "HgN/A
7:00 AM34 °FChilly.16 mph88%30.10 "HgN/A
6:00 AM34 °FChilly.14 mph94%30.11 "HgN/A
5:00 AM31 °FChilly.13 mph98%30.14 "HgN/A
Weather by CustomWeather, © 2015

See weather overviewHow to use our weather pages